Location: Ar Ranvel
(48.3000°N, 4.8833°W)
Time: 14:00:05
(UTC+00:00)

USA 215 - Pass Details

Date: 16 June 2021
Orbit: 1100 x 1107 km, 123.0° (Epoch: 01 August)

Event Time Altitude Azimuth Distance (km) Brightness Sun altitude
Rises 21:37:42 0° 58° (ENE) 3,923 6.1 -9.6°
Reaches altitude 10° 21:40:37 10° 70° (ENE) 2,961 5.4 -9.9°
Maximum altitude 21:46:06 28° 127° (SE) 1,933 4.0 -10.4°
Drops below altitude 10° 21:51:32 10° 185° (S) 2,950 5.1 -11.0°
Sets 21:54:25 0° 196° (SSW) 3,905 5.8 -11.2°
